www.pogodaiklimat.ru

Погода и климат >> Архив погоды >> Россия >> Ульяновская область >> Ульяновск


АРХИВ ПОГОДЫ в Ульяновске

Время (UTC), дата Ветер
(напр.,м/с)
 
Видим.   Явления Облачность Т
(С)
Тd
(С)
f
(%)
Тe
(С)
Тes
(С)
Комфортность P
(гПа)
Po
(гПа)
Тmin
(С)
Tmax
(С)
R
(мм)
R24
(мм)
S
(см)
00 14.06 З 2 10 км 3/0
[Ci fib]
+5.6 +0.8 71 +3 +3 1024.0 1008.0
03 14.06 З 3 10 км 3/0
[Ci fib]
+10.2 +2.8 60 +8 +11 1023.5 1007.7 +4.0
06 14.06 СЗ 2 10 км 6/0
[Ac trans Ci fib]
+17.7 -1.5 27 +18 +27 1021.8 1006.5
09 14.06 З 5 10 км 8/0
[Ac trans Ci fib]
+19.1 +0.2 28 +19 +24 1019.7 1004.5
12 14.06 СЗ 3 10 км 9/4 1500 м
[Cb calv Ac trans Ci fib]
+18.9 +1.7 32 +19 +22 1017.5 1002.3
15 14.06 СЗ 1
{11}
10 км слаб. ливневой дождь 9/6 1000 м
[Cb calv Ac trans]
+14.5 +5.2 54 +15 +16 1016.6 1001.2 +19.7 0.0
18 14.06 штиль 0 10 км в посл. час ливневой дождь 9/9 1200 м
[Cb calv]
+10.2 +8.4 89 +9 +9 1016.2 1000.6
21 14.06 З 2 10 км в посл. час ливневой дождь 9/9 1440 м
[Cb calv]
+10.2 +8.5 89 +9 +9 1015.3 999.7
00 15.06 штиль 0 10 км {ливн. осадки} 3/3 1500 м
[Sc]
+7.5 +6.5 93 +7 +7 1014.9 999.2
03 15.06 штиль 0 10 км {туман} 6/6 120 м
[St]
+8.3 +7.4 94 +7 +9 1015.6 999.9 +6.9 0.8
06 15.06 С 1 10 км {туман} 8/6 800 м
[Cu med, cong Ci fib]
+14.6 +6.3 57 +15 +20 1015.4 1000.0
09 15.06 СВ 1 10 км 8/8 1440 м
[Sc]
+16.6 +4.6 45 +18 +21 1014.8 999.6
12 15.06 В 1 10 км 6/6 1350 м
[Sc]
+17.8 +4.4 41 +19 +24 1014.0 998.8
15 15.06 ЮВ 1 10 км 4/4 1500 м
[Sc]
+17.1 +4.9 44 +18 +19 1012.6 997.4 +18.6
18 15.06 Ю 1 10 км 8/4 1500 м
[Sc Ac trans]
+14.8 +5.2 53 +15 +15 1012.8 997.4
21 15.06 З 1 10 км 6/4 1500 м
[Sc Ac trans]
+13.1 +6.4 64 +13 +13 1012.6 997.2
00 16.06 З 1 10 км 8/0
[Ac trans]
+12.7 +6.7 67 +13 +13 1012.0 996.6
03 16.06 штиль 0 10 км 6/3 1500 м
[Sc Ac trans]
+14.3 +7.2 62 +14 +16 1011.8 996.5 +11.4
06 16.06 СЗ 3 10 км 6/6 1500 м
[Cu med, cong]
+17.6 +4.9 43 +18 +22 1011.5 996.3
09 16.06 СВ 1 10 км 8/8 1500 м
[Cb calv]
+18.9 +4.3 38 +20 +24 1011.2 996.1
12 16.06 СЗ 2 10 км 8/8 1500 м
[Cb calv]
+20.4 +4.6 35 +22 +24 комфорт 1010.4 995.3
15 16.06 СЗ 4 10 км 6/6 1500 м
[Cb calv]
+21.3 +5.2 35 +22 +22 комфорт 1010.2 995.3 +22.2
18 16.06 З 2 10 км 3/3 1500 м
[Sc]
+14.6 +6.8 59 +14 +14 1011.5 996.2
21 16.06 СЗ 1 10 км 6/0
[Ac trans Ci]
+11.2 +6.1 71 +11 +11 1012.2 996.7
00 17.06 СЗ 1 10 км 1/0
[Ac trans]
+8.4 +5.7 83 +8 +8 1013.1 997.4
03 17.06 ЮЗ 1 10 км 4/0
[Ac trans Ci fib]
+13.5 +8.0 69 +14 +17 1013.3 997.9 +7.8
06 17.06 СЗ 5 10 км 4/4 1500 м
[Cu hum]
+21.2 +7.1 40 +22 +26 комфорт 1012.6 997.6
09 17.06 СЗ 5
{11}
10 км 6/6 1500 м
[Cu hum]
+23.8 +7.0 34 +24 +28 комфорт 1011.7 996.8
12 17.06 СЗ 6
{11}
10 км 9/8 1500 м
[Cu med, cong Ci fib]
+24.3 +6.8 33 +24 +25 комфорт 1010.9 996.1
15 17.06 СЗ 5
{12}
10 км 4/3 1500 м
[Cu hum Ci fib]
+24.2 +6.2 31 +24 +25 комфорт 1010.3 995.5 +26.2
18 17.06 З 3 10 км 6/0
[Ac trans Ci fib]
+18.5 +7.7 49 +19 +19 1010.9 995.8
21 17.06 З 3 10 км 6/0
[Ac trans Ci fib]
+14.5 +7.9 65 +14 +14 1011.5 996.2
00 18.06 СЗ 1 10 км 8/0
[Ac trans]
+15.1 +8.7 66 +16 +16 1011.3 996.0
03 18.06 З 1 10 км 8/0
[Ac trans]
+18.9 +10.3 57 +21 +22 комфорт 1011.5 996.4 +14.1
06 18.06 З 2 10 км 8/3 1500 м
[Sc Ac trans]
+23.8 +10.3 42 +25 +30 комфорт 1011.1 996.3
09 18.06 С 2 10 км 8/4 1500 м
[Cu Sc Ci]
+25.7 +7.4 31 +26 +34 жарко 1010.7 995.9
12 18.06 ЮВ 1 10 км 8/4 1500 м
[Cu hum Ac trans Ci fib]
+26.8 +8.4 31 +27 +32 жарко 1009.3 994.7
15 18.06 СЗ 3 10 км 8/8 1500 м
[Cb calv]
+22.9 +11.7 49 +25 +26 комфорт 1009.2 994.4 +27.1
18 18.06 штиль 0 10 км 6/6 1500 м
[Cb calv]
+19.1 +10.5 57 +20 +20 1009.9 994.9
21 18.06 штиль 0 10 км 9/6 1500 м
[Sc Ac trans]
+16.8 +11.5 71 +17 +17 1009.9 994.8
00 19.06 З 2 10 км 9/4 1500 м
[Cb calv Ac trans]
+16.7 +12.3 75 +17 +17 1009.8 994.6
03 19.06 СЗ 3 10 км слаб. ливневой дождь 8/8 1500 м
[Cb calv]
+17.8 +14.5 81 +18 +18 1009.9 994.8 +16.3 0.0
06 19.06 СЗ 1 10 км {ливн. осадки} 6/3 1500 м
[Cu hum Ac trans]
+22.9 +12.0 50 +25 +33 комфорт 1010.0 995.2
09 19.06 СЗ 1 10 км гроза без осадков 8/6 1470 м
[Cb cap Ci]
+26.4 +9.8 35 +27 +34 жарко 1009.8 995.2
12 19.06 З 5 10 км гроза без осадков {ливн. осадки} 8/8 1350 м
[Cb cap]
+25.1 +11.9 44 +27 +28 жарко 1010.5 995.7
15 19.06 С 1 10 км {гроза} 6/4 1000 м
[Cb calv Ci]
+25.9 +11.3 40 +27 +28 жарко 1011.0 996.3 +26.8 0.3
18 19.06 штиль 0 10 км {гроза} 4/4 1500 м
[Cb calv]
+18.7 +13.0 69 +19 +19 1012.2 997.1
21 19.06 З 2 10 км 4/0
[Ac trans]
+15.1 +12.2 83 +15 +15 1013.2 998.0
00 20.06 З 1 10 км 3/0
[Ci fib]
+13.2 +11.4 89 +13 +13 1013.9 998.5
03 20.06 СЗ 2 10 км 6/1 1500 м
[Sc Ci fib]
+18.2 +12.9 71 +19 +21 1014.6 999.5 +12.3
06 20.06 СЗ 1 10 км 3/0
[Ci fib]
+25.5 +14.3 50 +28 +41 жарко 1014.7 999.9
09 20.06 СЗ 2 10 км 6/6 1500 м
[Cu med, cong]
+27.2 +9.5 33 +28 +34 жарко 1014.4 999.7
12 20.06 штиль 0 10 км в посл. час ливневой дождь 6/6 1200 м
[Cb calv]
+27.1 +13.8 44 +29 +35 жарко 1013.9 999.2
15 20.06 С 1 10 км 3/3 1500 м
[Sc]
+28.8 +7.3 26 +28 +30 жарко 1013.6 999.0 +29.6 0.3
18 20.06 З 2 10 км 3/0
[Ci fib]
+20.3 +10.2 52 +22 +22 комфорт 1015.2 1000.1
21 20.06 З 1 10 км 3/0
[Ac trans]
+16.3 +10.0 66 +17 +17 1016.2 1000.9

 

Местоположение метеостанции Ульяновск (Ульяновская область, Россия): широта 54.27 долгота 48.23 высота над уровнем моря 129 м.

В архиве по умолчанию представлена погода в Ульяновске за последнюю неделю. Архивные данные за месяц целиком и за предыдущие месяцы, начиная с января 2011 года, Вы можете получить, выбрав интересующий диапазон дат из раскрывающегося списка и нажав кнопку "Ввод!".


*Определитесь, кто Вы:
робот инопланетянин человек

Внимание! Время в таблицах - всемирное. Для получения местного времени необходимо прибавить поправку, которая равна 4 ч.

Смотрите также архив погоды в соседних городах и на ближайших метеорологических станциях:

Погода в Сенгилее (Ульяновская область, Россия) (50 км)
Погода в Дрожжаном (Татарстан, Россия) (66 км)
Погода в Тетюшах (Татарстан, Россия) (84 км)
Погода в Новодевичьем (Самарская область, Россия) (84 км)
Погода в Димитровграде (Ульяновская область, Россия) (89 км)
Погода в Батырево (Чувашия, Россия) (98 км)
Погода в Сурском (Ульяновская область, Россия) (102 км)
Погода в Тольятти (Самарская область, Россия) (108 км)
Погода в Тольятти (дамба) (Самарская область, Россия) (121 км)
Погода в Сызрани (Самарская область, Россия) (122 км)

Пояснения к столбцам:

Ветер - указаны скорость ветра в м/с - средняя за 10 мин, порывы в срок и между сроками (в фигурных скобках) и направление, откуда дует ветер: С - северный, СВ - северо-восточный, В - восточный, ЮВ - юго-восточный, Ю - южный, ЮЗ - юго-западный, З - западный, СЗ - северо-западный.
Видимость - горизонтальная дальность видимости в метрах или километрах. При видимости от 1 до 10 км при отсутствии осадков обычно наблюдается дымка, при ухудшении видимости до 1 км и менее - туман. В сухую погоду видимость может ухудшаться дымом, пылью или мглою.
Явления - указаны атмосферные явления, наблюдавшиеся в срок или в последний час перед сроком; фигурными скобками обозначены явления, наблюдавшиеся между сроками (за 1-3 часа до срока); квадратными скобками обозначены град или гололедные отложения с указанием их диаметра в мм.
Облачность - указаны через наклонную черту общая и нижняя облачность в баллах и высота нижней границы облаков в метрах; квадратными скобками обозначены формы облаков: Ci - перистые, Cs - перисто-слоистые, Cc - перисто-кучевые, Ac - высококучевые, As - высокослоистые, Sc - слоисто-кучевые, Ns - слоисто-дождевые, Cu - кучевые, Cb - кучево-дождевые. Подробнее классификацию облаков см. в Атласе облаков (PDF).
T - Температура воздуха - температура, измеренная на высоте 2 м над землей.
Td - Температура точки росы - температура, при понижении до которой содержащийся в воздухе водяной пар достигнет насыщения.
f - Относительная влажность воздуха - влажноcть воздуха, измеренная на высоте 2 м над землей.
Te - Эффективная температура - температура, которую ощущает одетый по сезону человек в тени. Характеристика душности погоды. При расчете учитывается влияние влажности воздуха и скорости ветра на теплоощущения человека.
Tes - Эффективная температура на солнце - температура, которую ощущает человек, с поправкой на солнечный нагрев. Характеристика знойности погоды. Зависит от высоты солнца над горизонтом, облачности и скорости ветра. Ночью, в пасмурную погоду, а также при ветре 12 м/с и более поправка равна нулю.
P - Атмосферное давление - приведенное к уровню моря атмосферное давление.
Po - Атмосферное давление - измеренное на уровне метеостанции атмосферное давление.
Tmin - Минимальная температура - минимум температуры воздуха на высоте 2 м над землей.
Tmax - Максимальная температура - максимум температуры воздуха на высоте 2 м над землей.
R - Количество осадков - Количество выпавших осадков за период времени, мм. При наведении курсора мыши на число - период времени, за который выпало указанное количество осадков.
R24 - Количество осадков - Количество выпавших осадков за 24 часа, мм.
S - Снежный покров - Высота снежного покрова, см. При наведении курсора мыши на число - состояние снежного покрова и степень покрытия местности в баллах.